Regional Weather Roundup
Issued by NWS Little Rock, AR

Home | Current Version | Previous Version | Graphics & Text | Print | Product List | Glossary On
Versions: 1 2 3 4 5 6 7 8 9 10 11 12 13 14 15 16 17 18 19 20 21 22 23 24 25 26 27
000
ASUS44 KLZK 270405
RWRLZK

WEATHER ROUNDUP FOR ARKANSAS
NATIONAL WEATHER SERVICE LITTLE ROCK AR
1100 PM CDT THU MAY 26 2016

NOTE: "FAIR" INDICATES FEW OR NO CLOUDS BELOW 12,000 FEET WITH NO
SIGNIFICANT WEATHER AND/OR OBSTRUCTIONS TO VISIBILITY.

ARZ001-003-010-029-270500-
NORTHWEST ARKANSAS

CITY           SKY/WX    TMP DP  RH WIND       PRES   REMARKS
FAYETTEVILLE   CLEAR     64  64 100 CALM      29.81F
FORT SMITH     CLEAR     72  63  73 E3        29.79F
HARRISON       PTCLDY    67  64  90 SE6       29.88R
BENTONVILLE    CLEAR     66  61  82 SE8       29.83S
ROGERS           N/A     66  62  87 E8        29.84S
SILOAM SPGS    CLEAR     64  55  72 E7        29.80F
HIGHFILL       CLEAR     66  63  90 E5        29.81F
$$

ARZ004-005-016-270500-
NORTH CENTRAL ARKANSAS

CITY           SKY/WX    TMP DP  RH WIND       PRES   REMARKS
BATESVILLE     CLOUDY    70  66  88 E10       29.92S
FLIPPIN        MOCLDY   N/A N/A N/A SE3       29.84R
MTN HOME       CLOUDY    69  67  93 SE5       29.87S
$$

ARZ040-041-270500-
WEST CENTRAL ARKANSAS

CITY           SKY/WX    TMP DP  RH WIND       PRES   REMARKS
MENA           CLOUDY    75  70  83 SE5       29.86R
MOUNT IDA      CLOUDY    71  68  90 CALM      29.83S
$$

ARZ009-017-025-026-028-270500-
NORTHEAST ARKANSAS

CITY           SKY/WX    TMP DP  RH WIND       PRES   REMARKS
CORNING          N/A     68  68 100 SE22G32   29.97R
JONESBORO      LGT RAIN  69  67  93 E14       29.96F
NEWPORT        CLOUDY    71  70  97 E18       29.93F
WALNUT RIDGE   MOCLDY    70  64  83 E20G26    29.94F
BLYTHEVILLE    LGT RAIN  69  68  96 SE14G21   29.98F
$$

ARZ022-023-033-042-044-270500-
CENTRAL ARKANSAS

CITY           SKY/WX    TMP DP  RH WIND       PRES   REMARKS
LITTLE ROCK    LGT RAIN  72  68  87 SE5       29.88F
N LITTLE ROCK    N/A     69  67  93 SE6       29.85F
JACKSONVILLE   CLOUDY    70  70  99 SE2       29.88F
SEARCY         CLOUDY    71  70  96 CALM      29.90F
HOT SPRINGS    MOCLDY    70  68  93 E7        29.85F
RUSSELLVILLE   CLOUDY    73  66  78 E6        29.84F
CLINTON          N/A     72  72 100 CALM      29.88F FOG
$$

ARZ036-270500-
EAST ARKANSAS

CITY           SKY/WX    TMP DP  RH WIND       PRES   REMARKS
WEST MEMPHIS   TSTM      69  68  96 E16       29.94F FOG
$$

ARZ050-053-066-070-073-270500-
SOUTHWEST ARKANSAS

CITY           SKY/WX    TMP DP  RH WIND       PRES   REMARKS
ARKADELPHIA    FAIR      71  71 100 CALM      29.86S
CAMDEN         CLOUDY    73  68  83 SE8       29.86F
TEXARKANA      CLOUDY    72  70  93 SE5       29.85R
EL DORADO      CLOUDY    74  70  87 S3        29.88R
DE QUEEN       CLOUDY    71  71 100 E7        29.83R FOG
$$

ARZ056-057-069-270500-
SOUTHEAST ARKANSAS

CITY           SKY/WX    TMP DP  RH WIND       PRES   REMARKS
PINE BLUFF     LGT RAIN  71  69  93 NE3       29.88F
STUTTGART      CLOUDY    73  66  78 NE6       29.90F
MONTICELLO     CLOUDY    79  71  76 VRB5      29.88F

$$






USA.gov is the U.S. government's official web portal to all federal, state and local government web resources and services.